Dewpoint
-5 -4 -3 -5 -5 -7 -7 -3 -1 -3 -2 -2 -0 8 10 8 4 4 3 3 3 4 8 8 8 8 6 6 6 5 5 6 2 6 8 9 6 5 3 7 8 8 8 10
-3 -1 -4 -5 -5 -7 -7 -6 -4 -4 -3 -4 -6 4 8 9 5 2 3 4 2 3 6 8 8 8 9 6 8 8 6 6 8 8 6 6 6 4 3 7 9 7 9 9
-1 -2 -3 -5 -5 -6 -7 -5 -6 -4 -2 -4 -6 -6 5 5 3 3 3 5 4 2 5 7 8 8 8 8 8 9 9 8 8 8 6 8 6 5 5 8 7 7 10 9
-3 -4 -4 -4 -5 -7 -5 -8 -5 -3 -3 -3 -3 1 -1 1 1 3 2 3 3 3 3 6 7 8 8 8 8 8 8 7 8 8 8 8 6 4 6 8 8 8 9 10
-2 -3 -4 -3 -6 -8 -6 -4 -3 -4 -4 -2 -2 -0 -4 -4 -2 1 3 3 3 2 3 4 5 7 8 8 8 8 8 8 8 7 8 8 6 5 5 8 9 9 10 9
-4 -6 -5 -4 -7 -7 -8 -4 -2 -2 -3 2 1 -2 -3 -3 -4 -3 -0 2 2 2 3 3 4 5 7 8 8 9 8 8 8 8 7 8 8 6 7 8 8 9 8 8
-4 -5 -6 -6 -6 -6 -5 -3 1 2 2 5 -1 -1 -1 -3 -1 1 1 0 4 2 2 3 4 5 5 6 7 8 8 9 9 8 9 9 8 8 7 8 9 10 9 8
-1 -0 -4 -7 -6 -4 -3 -3 3 5 8 6 5 3 -4 -4 -4 -6 -6 1 2 2 2 3 2 4 5 6 6 6 7 8 8 8 9 9 7 8 10 9 9 9 8 7
-1 -2 -6 -6 -7 -5 -3 -1 -3 0 5 8 9 3 -6 -6 -6 -8 -8 -6 -6 -6 2 2 2 2 4 6 6 7 8 8 8 8 8 8 9 10 8 5 9 10 9 8
-3 -0 -4 -6 -6 -5 -4 -5 3 1 5 7 2 1 -1 -2 -6 -8 -8 -7 -6 -3 -2 -0 2 2 2 4 7 7 8 9 9 9 9 9 10 10 7 6 10 9 7 8
-4 -1 -1 -3 -3 -3 -3 -2 0 2 2 8 6 3 -1 -1 -6 -6 -6 -8 -7 -4 -0 1 1 1 2 3 4 7 9 10 9 9 9 10 9 9 10 9 10 8 9 9
-4 -1 2 -2 -5 -5 -4 -2 -2 4 4 4 9 4 -3 -2 -4 -5 -6 -7 -7 -5 -2 1 3 2 2 3 5 7 8 9 10 10 10 9 10 10 11 9 10 11 10 9
-3 -2 3 1 -2 -3 -3 -4 -2 1 2 6 10 4 -3 -5 -6 -7 -6 -7 -6 -5 -4 1 4 5 4 4 5 6 7 10 10 10 10 10 10 11 8 10 10 10 9 8
-0 -1 0 4 0 -1 -0 -3 -4 1 6 5 6 3 1 -1 -1 -4 -6 -6 -6 -5 -5 -2 4 5 6 7 7 8 9 9 10 10 10 10 11 11 10 10 9 9 8 8
2 2 -0 -1 -3 -3 -3 -3 -4 -3 4 5 4 4 1 -1 -2 -2 -4 -3 -5 -5 -4 -2 3 6 7 8 9 9 10 10 10 10 10 11 10 10 9 9 8 7 7 7
1 2 1 2 -1 -4 -2 -4 -5 -4 -4 -4 -3 -2 -5 -4 -3 -1 -3 -4 -3 -3 -2 0 2 7 8 9 9 10 10 10 10 10 9 9 9 8 7 7 6 6 6 5
2 3 3 5 1 -1 1 -2 -4 -5 -5 -4 -1 -2 -5 -5 -6 -7 -4 -6 -4 -2 1 4 6 8 9 9 9 9 9 8 8 7 7 6 6 6 6 5 5 5 4 3
4 3 3 6 6 6 -1 -5 -6 -5 -6 -5 -6 -7 -7 -7 -8 -6 -5 -4 -2 1 3 5 6 6 7 7 6 6 6 5 5 4 4 4 4 3 3 3 3 3 1 0
2 5 7 7 6 1 -3 -3 -3 -2 -2 -5 -5 -6 -7 -9 -9 -2 -3 -3 -0 2 3 4 4 4 4 4 4 4 3 3 3 3 3 2 2 2 2 1 0 -0 -1 -1
2 5 8 7 7 7 2 -1 -5 -5 1 -4 -5 -4 -5 -5 4 0 -1 -0 1 2 3 3 3 3 2 2 2 2 2 2 1 2 2 2 2 2 2 1 0 0 0 -0
4 7 8 8 7 5 -0 -3 -5 2 2 -3 -4 -5 -4 0 -0 -2 -1 1 1 2 2 2 2 2 2 2 1 1 1 1 1 1 1 1 2 1 -0 -1 -1 -1 -2 -2
6 8 9 8 7 7 -1 -3 0 1 -2 -3 -4 -3 -4 -4 -2 -1 0 1 1 1 2 2 1 2 2 2 1 1 1 1 1 1 1 0 -0 -1 -3 -5 -5 -3 -4 -3
5 5 8 7 6 3 -3 -1 -2 -3 -2 -3 -2 -2 -3 -1 1 1 1 1 1 1 1 1 1 2 2 1 1 1 1 1 -0 -0 -1 -2 -4 -4 -5 -5 -6 -6 -5 -4
2 0 4 3 3 4 1 0 -1 -2 -2 -2 -2 -1 -2 1 1 1 1 1 1 1 1 1 1 1 1 1 1 1 1 0 -1 -3 -4 -5 -6 -7 -8 -9 -9 -8 -10 -12
-0 4 3 3 1 -0 -1 -2 -0 1 0 -0 -1 -1 -1 0 2 1 1 1 1 0 1 1 1 1 1 0 0 -1 -2 -3 -3 -4 -6 -7 -9 -11 -12 -13 -15 -18 -20 -26
-3 -2 3 4 0 3 2 0 1 1 0 1 0 -1 -1 1 2 1 1 1 0 0 0 1 1 0 -1 -1 -2 -3 -4 -5 -6 -7 -8 -11 -13 -13 -13 -16 -17 -20 -22 -27
Wind_Speed
20 12 15 18 18 19 16 8 16 7 4 6 17 22 15 12 15 17 18 17 15 16 27 23 23 18 21 30 29 29 31 32 37 31 25 25 25 23 25 24 30 22 21 22
17 18 18 18 18 18 16 12 18 9 12 8 11 17 23 22 22 19 17 21 19 21 24 28 28 27 22 28 27 26 30 34 34 32 28 26 23 24 24 24 24 21 25 24
20 18 19 16 19 15 12 16 14 9 6 11 12 12 22 20 22 23 18 22 19 23 29 29 30 32 31 27 28 30 29 25 25 23 20 25 25 23 22 30 24 25 20 24
19 21 15 10 13 13 15 15 5 12 10 8 5 9 8 14 14 14 19 22 26 27 29 31 31 33 34 34 29 30 30 29 28 30 30 29 29 30 29 29 25 24 27 26
20 19 18 14 16 17 14 2 13 12 13 13 7 9 9 12 12 16 16 21 23 28 30 34 35 36 37 35 36 31 35 33 32 29 29 30 29 29 28 26 24 20 24 27
22 24 19 16 16 17 13 9 10 12 11 9 13 10 5 6 8 8 19 19 23 26 30 32 34 35 35 35 37 38 37 37 35 35 31 30 30 30 28 29 29 33 30 27
22 24 18 16 18 17 10 9 8 10 9 7 11 9 11 10 5 7 11 21 30 28 28 30 35 39 38 39 39 38 38 38 36 36 35 35 33 28 33 27 33 33 28 25
17 17 23 15 19 18 15 16 8 7 4 7 12 7 7 14 14 5 10 32 40 31 33 31 33 40 41 41 42 41 41 40 39 38 37 36 32 33 25 29 31 28 35 31
18 22 20 17 17 18 15 16 16 18 5 3 5 21 9 8 12 8 8 7 5 10 34 36 33 34 37 43 44 44 42 38 38 38 40 42 38 33 28 36 35 35 37 34
19 13 21 21 20 19 17 12 11 11 10 7 12 16 7 3 8 8 4 9 5 5 3 12 32 33 34 36 41 44 44 40 36 37 38 42 38 39 21 27 35 37 38 32
20 14 11 17 21 18 13 12 7 16 10 6 5 5 10 5 8 5 7 7 4 5 8 6 9 13 19 33 37 41 41 38 32 33 37 38 42 44 30 26 37 35 32 29
25 11 13 17 14 17 17 16 17 10 9 6 3 8 10 14 7 6 4 4 9 8 8 8 7 8 12 16 14 19 30 29 28 30 33 29 28 31 25 27 29 31 28 22
20 18 10 17 16 19 19 18 13 15 10 12 4 7 9 9 8 8 7 11 17 12 9 10 9 9 10 12 14 15 18 21 22 24 26 19 24 27 23 24 27 26 25 19
11 13 21 15 14 9 14 20 17 18 9 11 8 9 14 12 4 8 14 16 18 21 14 11 14 11 12 13 14 14 14 14 13 16 17 20 22 17 15 18 20 18 17 17
6 16 18 21 20 20 17 20 20 20 21 17 13 20 20 19 15 6 11 6 10 7 10 11 14 15 16 16 16 15 17 18 19 18 15 15 16 13 12 12 13 14 15 17
5 12 15 23 21 19 22 22 20 21 22 20 17 17 15 18 12 10 10 12 8 10 11 12 11 17 15 16 18 20 22 20 16 17 17 15 10 9 7 8 10 9 9 9
11 10 17 19 19 13 21 21 19 16 18 17 17 16 14 13 12 12 21 15 16 11 12 13 16 18 17 20 20 20 18 18 19 18 14 15 16 16 15 15 13 13 12 8
12 12 11 7 2 20 10 14 16 16 16 15 16 16 12 13 17 7 4 7 15 16 15 16 18 20 20 20 19 20 20 20 19 18 16 14 13 11 11 11 11 9 8 8
12 10 7 9 13 13 18 13 14 13 18 18 20 17 16 20 21 7 3 7 17 21 22 21 21 22 23 23 24 23 21 20 18 17 15 13 13 13 11 10 10 9 8 7
18 14 8 5 15 18 5 11 15 17 13 12 14 13 10 10 4 3 14 12 19 24 22 23 23 23 23 23 23 22 21 19 18 17 16 15 14 14 16 14 12 9 10 11
2 8 11 10 6 7 7 13 23 17 8 8 14 17 13 4 0 10 14 20 23 25 26 25 24 24 23 23 23 22 20 19 18 17 18 19 19 15 12 12 11 10 8 8
7 3 4 7 8 12 7 13 17 10 12 9 14 9 3 3 4 11 23 27 28 28 27 27 26 25 24 23 22 21 20 21 23 21 19 16 13 10 9 9 10 10 8 7
3 8 3 5 2 5 17 22 20 14 11 14 11 14 9 10 15 25 29 28 28 28 28 27 26 25 23 21 21 23 22 19 17 16 15 13 13 13 12 12 12 10 8 11
12 10 6 2 9 16 4 17 27 20 17 20 13 14 11 15 21 25 26 28 30 29 28 26 26 26 24 22 20 20 20 18 18 17 16 16 15 13 11 10 11 12 12 9
7 15 16 11 12 18 39 22 17 15 19 11 8 8 12 18 26 27 27 29 29 28 27 26 25 23 22 21 21 19 18 18 19 18 17 16 16 12 14 11 8 8 6 7
10 12 7 6 7 4 15 20 19 14 19 21 12 14 13 19 26 27 28 29 28 28 26 24 22 22 20 19 19 17 17 18 18 17 16 15 15 12 7 6 6 7 8 9
Wind_Direction
221 229 235 234 238 253 282 278 260 176 264 246 255 153 175 235 219 186 169 159 167 159 159 161 162 167 155 157 158 164 166 172 175 181 195 196 209 214 217 209 229 230 220 206
234 224 241 241 256 266 253 273 277 161 197 228 275 151 166 184 213 186 179 159 174 165 159 167 172 169 185 175 167 171 176 177 187 195 195 196 215 212 213 223 226 215 213 216
226 235 227 231 249 249 256 256 258 317 257 271 261 266 160 194 181 176 187 170 194 172 168 176 179 179 182 194 186 187 197 197 198 200 202 201 215 218 220 226 234 222 216 221
238 235 255 225 251 237 245 234 238 256 272 268 6 291 295 190 171 181 181 188 184 183 181 181 188 190 193 196 197 196 201 202 202 205 212 210 214 216 216 225 234 236 222 225
234 244 239 232 233 228 240 313 278 256 270 290 271 260 229 216 194 194 186 197 190 186 190 186 191 196 196 196 203 201 205 209 210 212 217 218 216 217 218 217 216 224 223 233
239 235 233 217 241 244 227 196 234 258 265 267 278 262 247 211 287 252 184 182 205 193 192 193 195 197 201 205 204 206 207 212 214 216 217 216 223 219 221 218 227 228 235 236
226 238 229 220 229 235 224 231 241 236 233 237 267 238 241 172 126 296 162 188 232 203 196 198 195 193 198 204 210 209 213 212 215 215 217 223 221 228 226 227 228 224 235 226
222 226 232 210 226 232 198 234 229 259 253 275 354 280 249 183 175 214 167 185 202 204 194 203 206 197 197 205 211 215 215 217 214 217 218 223 231 219 233 238 242 236 250 246
217 229 222 213 217 246 215 216 245 265 140 85 193 259 211 176 179 164 213 183 223 222 201 198 213 207 201 203 208 213 211 217 217 220 220 223 224 221 222 261 246 243 243 247
240 225 230 212 211 214 244 245 236 232 236 234 240 232 223 235 203 164 140 209 189 141 195 208 209 213 210 208 207 214 218 211 217 221 223 224 221 218 256 261 244 247 254 248
231 240 239 254 208 214 214 237 212 244 235 212 247 283 35 354 209 142 173 157 143 125 155 210 229 233 226 219 217 214 208 203 206 220 225 227 234 228 246 228 238 248 254 256
221 229 243 267 192 215 243 224 225 245 248 261 227 256 152 192 259 268 157 210 162 161 171 177 193 208 219 225 219 207 212 212 218 224 236 227 236 239 241 247 245 244 254 270
199 226 229 250 215 221 220 238 225 264 237 231 188 245 202 192 217 267 191 231 172 179 209 166 183 187 192 204 213 213 213 208 217 232 234 230 225 235 238 242 243 249 256 264
216 205 217 229 240 223 220 235 221 226 230 240 260 245 268 289 318 284 235 231 196 182 193 196 180 187 181 181 186 192 202 207 216 221 229 227 222 231 238 234 242 251 252 255
165 224 210 240 240 238 216 230 230 247 209 234 216 231 229 228 206 218 340 351 175 180 179 201 180 171 173 171 168 169 169 182 182 185 174 199 215 229 228 229 229 232 233 239
225 220 222 249 255 239 260 259 229 221 244 253 248 243 239 250 154 143 200 206 213 210 196 191 197 164 169 160 162 167 173 177 172 160 184 196 196 163 171 191 203 215 235 240
228 217 221 230 235 243 251 245 254 244 230 239 244 252 251 258 270 256 201 198 191 186 182 180 170 164 166 167 166 160 163 159 160 170 178 173 177 187 194 203 204 204 209 210
322 238 220 221 186 236 249 240 253 264 266 272 272 261 254 251 263 249 64 179 166 162 170 171 164 159 160 158 157 154 154 161 159 159 164 171 178 176 175 184 186 185 183 174
297 305 220 213 231 256 238 233 238 244 254 245 253 267 253 243 246 134 159 193 179 172 167 165 164 161 159 158 155 155 152 154 156 154 159 164 169 169 173 163 156 152 150 141
302 290 242 206 218 228 202 250 248 242 264 256 265 257 248 248 180 195 180 170 165 162 165 165 164 160 158 158 158 156 154 154 153 153 154 150 150 155 164 164 162 159 155 157
216 303 239 236 234 242 201 221 246 249 251 231 284 258 256 232 182 200 170 166 164 162 165 167 165 165 163 162 161 157 157 155 155 152 147 151 172 183 176 156 160 160 155 165
164 257 214 226 221 240 217 230 239 236 204 260 269 269 316 310 148 169 167 163 168 170 172 170 168 167 165 164 166 158 157 154 160 169 172 173 169 156 150 140 124 119 139 164
206 177 266 313 310 301 212 257 274 265 278 278 241 273 240 172 165 166 168 171 176 175 172 173 171 166 164 164 165 159 164 171 166 163 161 150 134 136 143 148 145 153 179 180
208 201 196 259 284 305 248 272 244 255 268 246 261 225 262 185 181 176 175 174 175 177 177 175 172 165 162 164 164 169 162 164 164 159 154 150 152 149 139 160 160 203 210 214
192 173 224 211 241 293 284 292 290 298 293 268 258 243 245 200 182 180 179 178 178 178 178 176 169 166 160 161 165 164 161 160 158 161 163 168 158 167 175 192 203 224 240 245
216 226 242 259 261 317 313 319 315 319 327 293 244 249 237 206 185 183 183 181 179 179 174 168 166 162 159 159 154 154 160 165 163 160 171 167 167 164 170 223 231 257 270 272
Height
1477 1478 1475 1467 1461 1456 1453 1458 1459 1449 1452 1452 1452 1476 1481 1478 1475 1478 1476 1476 1481 1486 1490 1494 1498 1500 1505 1508 1512 1515 1519 1524 1529 1533 1536 1539 1541 1544 1546 1548 1549 1552 1556 1556
1473 1469 1462 1458 1456 1453 1452 1457 1453 1445 1446 1449 1447 1459 1470 1468 1465 1471 1470 1473 1478 1483 1488 1493 1496 1500 1503 1508 1512 1515 1518 1522 1526 1529 1532 1536 1538 1540 1543 1544 1544 1550 1551 1552
1464 1457 1451 1454 1454 1454 1454 1457 1451 1450 1452 1444 1445 1449 1464 1461 1458 1462 1464 1468 1474 1478 1483 1489 1493 1496 1501 1503 1508 1513 1516 1519 1522 1526 1530 1532 1536 1537 1539 1539 1541 1543 1547 1550
1455 1452 1449 1450 1455 1452 1459 1447 1450 1454 1454 1460 1444 1466 1449 1445 1448 1452 1455 1460 1465 1471 1477 1482 1489 1493 1495 1499 1504 1509 1512 1515 1518 1522 1525 1528 1530 1532 1533 1535 1537 1541 1544 1544
1452 1449 1449 1452 1450 1446 1452 1446 1450 1449 1450 1450 1449 1458 1436 1437 1442 1444 1449 1456 1460 1464 1470 1475 1480 1486 1491 1496 1498 1503 1508 1511 1514 1517 1520 1524 1524 1527 1530 1533 1533 1534 1536 1539
1444 1442 1443 1443 1444 1442 1442 1448 1451 1451 1452 1466 1452 1449 1444 1440 1439 1437 1440 1452 1458 1460 1463 1469 1474 1481 1487 1491 1494 1497 1501 1504 1508 1511 1515 1518 1520 1524 1527 1528 1528 1527 1530 1532
1441 1439 1436 1439 1444 1440 1443 1451 1468 1474 1469 1468 1444 1443 1439 1433 1437 1445 1440 1445 1456 1455 1459 1463 1467 1472 1478 1483 1486 1491 1494 1498 1502 1506 1508 1511 1516 1520 1524 1526 1522 1522 1524 1524
1444 1450 1434 1432 1437 1440 1443 1449 1464 1482 1481 1470 1468 1454 1434 1425 1432 1431 1435 1440 1441 1446 1448 1455 1459 1463 1468 1473 1478 1482 1486 1490 1495 1499 1502 1504 1505 1514 1519 1522 1519 1519 1519 1518
1438 1437 1428 1429 1431 1435 1439 1448 1440 1452 1462 1480 1491 1450 1424 1422 1424 1427 1432 1434 1436 1439 1442 1446 1454 1457 1461 1464 1468 1472 1478 1483 1489 1493 1495 1497 1499 1504 1507 1508 1514 1513 1512 1512
1425 1436 1423 1421 1427 1431 1433 1432 1452 1444 1468 1479 1455 1441 1435 1430 1425 1425 1430 1432 1434 1437 1440 1443 1447 1450 1454 1458 1460 1462 1461 1464 1477 1486 1488 1491 1492 1495 1498 1497 1507 1506 1505 1507
1421 1426 1427 1420 1424 1429 1432 1436 1440 1444 1440 1463 1464 1448 1424 1430 1423 1423 1427 1430 1434 1437 1440 1443 1444 1446 1449 1452 1454 1447 1453 1460 1468 1476 1479 1483 1484 1487 1488 1491 1496 1495 1499 1502
1413 1422 1434 1426 1414 1419 1421 1426 1432 1448 1448 1439 1448 1445 1422 1429 1427 1423 1426 1430 1433 1436 1440 1443 1444 1445 1446 1449 1452 1454 1457 1461 1467 1472 1471 1479 1483 1484 1484 1485 1488 1492 1494 1496
1410 1419 1436 1429 1422 1418 1420 1419 1427 1427 1430 1440 1458 1447 1421 1419 1424 1424 1425 1429 1429 1434 1437 1439 1443 1444 1446 1447 1450 1454 1457 1461 1463 1468 1470 1476 1477 1480 1482 1481 1485 1488 1491 1491
1401 1407 1414 1430 1420 1418 1421 1416 1415 1426 1439 1441 1440 1434 1431 1423 1424 1422 1422 1423 1425 1427 1432 1436 1438 1443 1444 1446 1448 1452 1454 1457 1462 1467 1468 1471 1473 1475 1477 1480 1481 1483 1485 1486
1401 1407 1409 1410 1408 1408 1409 1412 1413 1417 1429 1433 1430 1432 1421 1416 1415 1426 1422 1424 1421 1426 1429 1433 1435 1439 1443 1445 1447 1450 1453 1456 1460 1463 1464 1467 1469 1471 1473 1476 1477 1478 1481 1482
1397 1407 1412 1416 1408 1404 1409 1405 1402 1406 1408 1408 1408 1410 1405 1407 1411 1414 1419 1417 1424 1426 1429 1431 1434 1437 1443 1446 1448 1448 1450 1453 1456 1460 1462 1465 1467 1470 1471 1472 1473 1474 1476 1477
1400 1402 1410 1416 1407 1411 1417 1403 1397 1396 1397 1401 1410 1403 1399 1401 1402 1405 1407 1410 1416 1422 1428 1430 1432 1435 1441 1444 1444 1447 1449 1452 1455 1457 1461 1463 1466 1466 1468 1470 1471 1473 1474 1475
1410 1398 1402 1415 1419 1424 1394 1388 1390 1394 1394 1393 1393 1393 1394 1397 1399 1400 1403 1406 1412 1418 1425 1430 1432 1434 1437 1441 1444 1447 1449 1451 1453 1455 1458 1461 1463 1464 1467 1467 1469 1471 1472 1474
1417 1410 1404 1412 1412 1401 1390 1387 1391 1396 1397 1392 1393 1390 1390 1393 1395 1398 1404 1407 1410 1415 1421 1427 1431 1434 1436 1438 1441 1445 1448 1449 1452 1453 1456 1459 1461 1462 1464 1466 1467 1469 1471 1472
1416 1408 1409 1404 1410 1409 1391 1386 1386 1389 1400 1385 1386 1386 1386 1388 1400 1397 1401 1405 1408 1413 1421 1426 1430 1433 1436 1439 1441 1443 1445 1447 1449 1452 1455 1458 1460 1461 1462 1464 1466 1468 1470 1473
1426 1416 1407 1405 1402 1390 1381 1382 1385 1400 1398 1382 1383 1382 1382 1384 1388 1392 1397 1404 1408 1413 1418 1423 1428 1431 1434 1436 1438 1440 1443 1445 1448 1451 1453 1456 1456 1459 1461 1462 1465 1466 1469 1471
1414 1419 1404 1403 1405 1403 1373 1379 1385 1380 1376 1379 1381 1382 1382 1385 1387 1392 1397 1402 1407 1411 1416 1421 1426 1429 1432 1433 1435 1437 1440 1443 1445 1448 1450 1453 1455 1458 1460 1462 1465 1468 1470 1471
1407 1406 1404 1404 1387 1375 1372 1376 1374 1373 1375 1377 1377 1379 1381 1383 1388 1392 1395 1399 1406 1412 1415 1420 1423 1426 1429 1432 1434 1435 1438 1440 1443 1445 1448 1452 1456 1460 1462 1464 1466 1468 1468 1469
1387 1397 1399 1403 1381 1380 1374 1378 1372 1373 1373 1374 1375 1377 1379 1380 1385 1390 1394 1398 1403 1409 1414 1419 1421 1424 1427 1430 1433 1434 1438 1440 1442 1445 1449 1452 1454 1457 1460 1462 1463 1463 1463 1465
1377 1394 1388 1386 1383 1379 1373 1371 1372 1370 1372 1372 1373 1374 1376 1377 1381 1385 1391 1396 1401 1407 1413 1417 1420 1425 1427 1430 1431 1435 1438 1440 1442 1444 1446 1448 1452 1454 1455 1457 1458 1460 1461 1462
1372 1375 1379 1378 1375 1379 1377 1373 1370 1370 1370 1371 1371 1373 1373 1374 1378 1383 1388 1393 1399 1405 1410 1415 1420 1424 1428 1430 1432 1435 1437 1439 1440 1442 1444 1446 1449 1452 1453 1454 1456 1458 1458 1458